| time (UTC) | temp C | wind direction | speed KPH | gust KPH | rain 1hr cm | rain 24hr cm | rain mn cm | humidity % | barometer mb |
| 20260901215705 | 14 | 238 | 3.2 | 8.0 | 0.00 | 0.15 | 0.15 | 89 | 1012.8 |
| 20260901215206 | 14 | 252 | 1.6 | 9.7 | 0.00 | 0.15 | 0.15 | 89 | 1012.8 |
| 20260901211705 | 15 | 270 | 3.2 | 9.7 | 0.00 | 0.15 | 0.15 | 89 | 1012.7 |
| 20260901211205 | 15 | 244 | 6.4 | 8.0 | 0.00 | 0.15 | 0.15 | 89 | 1012.6 |
| 20260901210206 | 15 | 233 | 4.8 | 8.0 | 0.00 | 0.15 | 0.15 | 89 | 1012.5 |
| 20260901205205 | 15 | 244 | 4.8 | 8.0 | 0.00 | 0.15 | 0.15 | 89 | 1012.5 |
| 20260901204706 | 15 | 264 | 3.2 | 12.9 | 0.00 | 0.15 | 0.15 | 89 | 1012.5 |
| 20260901204205 | 15 | 244 | 8.0 | 14.5 | 0.00 | 0.15 | 0.15 | 89 | 1012.4 |
| 20260901203706 | 15 | 245 | 4.8 | 8.0 | 0.00 | 0.15 | 0.15 | 89 | 1012.4 |
| 20260901200705 | 15 | 246 | 8.0 | 12.9 | 0.08 | 0.18 | 0.15 | 88 | 1012.2 |
| 20260901200207 | 15 | 249 | 8.0 | 14.5 | 0.08 | 0.18 | 0.15 | 88 | 1012.2 |
| 20260901194705 | 15 | 232 | 6.4 | 9.7 | 0.08 | 0.23 | 0.15 | 87 | 1012.1 |
| 20260901194205 | 15 | 241 | 3.2 | 9.7 | 0.08 | 0.23 | 0.15 | 87 | 1012.1 |
| 20260901193206 | 16 | 253 | 8.0 | 11.3 | 0.08 | 0.23 | 0.15 | 86 | 1012.0 |
| 20260901192706 | 16 | 251 | 6.4 | 11.3 | 0.08 | 0.23 | 0.15 | 86 | 1012.0 |
| 20260901191705 | 16 | 260 | 9.7 | 16.1 | 0.08 | 0.23 | 0.15 | 85 | 1012.0 |
| 20260901190205 | 16 | 263 | 4.8 | 9.7 | 0.00 | 0.13 | 0.08 | 84 | 1011.8 |
| 20260901185705 | 16 | 275 | 4.8 | 11.3 | 0.00 | 0.13 | 0.08 | 83 | 1011.8 |
| 20260901184205 | 16 | 262 | 6.4 | 11.3 | 0.00 | 0.13 | 0.08 | 82 | 1011.5 |
| 20260901183206 | 16 | 274 | 4.8 | 11.3 | 0.00 | 0.13 | 0.08 | 80 | 1011.5 |
| 20260901182705 | 17 | 268 | 9.7 | 12.9 | 0.00 | 0.13 | 0.08 | 80 | 1011.5 |
| 20260901182205 | 17 | 270 | 8.0 | 11.3 | 0.00 | 0.13 | 0.08 | 79 | 1011.5 |
| 20260901180205 | 17 | 243 | 9.7 | 12.9 | 0.00 | 0.13 | 0.08 | 77 | 1011.4 |
| 20260901173706 | 18 | 267 | 17.7 | 24.1 | 0.00 | 0.13 | 0.08 | 75 | 1011.0 |
| 20260901164207 | 20 | 300 | 8.0 | 20.9 | 0.00 | 0.13 | 0.08 | 73 | 1010.7 |
| 20260901163705 | 20 | 251 | 11.3 | 22.5 | 0.00 | 0.13 | 0.08 | 72 | 1010.7 |
| 20260901162705 | 20 | 263 | 11.3 | 20.9 | 0.00 | 0.13 | 0.08 | 70 | 1010.7 |
| 20260901162204 | 20 | 256 | 16.1 | 27.4 | 0.00 | 0.13 | 0.08 | 71 | 1010.6 |
| 20260901161205 | 20 | 256 | 11.3 | 25.7 | 0.00 | 0.13 | 0.08 | 73 | 1010.6 |
| 20260901154705 | 20 | 298 | 12.9 | 27.4 | 0.00 | 0.13 | 0.08 | 73 | 1010.6 |
| 20260901153707 | 20 | 267 | 16.1 | 27.4 | 0.00 | 0.15 | 0.08 | 73 | 1010.6 |
| 20260901152208 | 20 | 257 | 16.1 | 25.7 | 0.00 | 0.15 | 0.08 | 74 | 1010.5 |
| 20260901151705 | 20 | 261 | 11.3 | 27.4 | 0.00 | 0.18 | 0.08 | 75 | 1010.4 |
| 20260901151206 | 20 | 270 | 14.5 | 25.7 | 0.00 | 0.25 | 0.08 | 76 | 1010.4 |
| 20260901150705 | 20 | 227 | 20.9 | 37.0 | 0.00 | 0.28 | 0.08 | 77 | 1010.4 |
| 20260901150206 | 19 | 230 | 8.0 | 24.1 | 0.00 | 0.28 | 0.08 | 79 | 1010.5 |
| 20260901145707 | 18 | 231 | 12.9 | 22.5 | 0.00 | 0.28 | 0.08 | 78 | 1010.5 |
| 20260901145206 | 18 | 244 | 11.3 | 16.1 | 0.00 | 0.28 | 0.08 | 78 | 1010.5 |
| 20260901144205 | 19 | 243 | 14.5 | 25.7 | 0.00 | 0.28 | 0.08 | 77 | 1010.5 |
| 20260901142706 | 20 | 239 | 14.5 | 24.1 | 0.00 | 0.28 | 0.08 | 74 | 1010.4 |
| 20260901142205 | 20 | 258 | 11.3 | 22.5 | 0.00 | 0.28 | 0.08 | 73 | 1010.4 |
| 20260901141705 | 20 | 241 | 8.0 | 27.4 | 0.00 | 0.28 | 0.08 | 73 | 1010.3 |
| 20260901141205 | 20 | 252 | 14.5 | 27.4 | 0.00 | 0.28 | 0.08 | 72 | 1010.3 |
| 20260901134707 | 21 | 235 | 16.1 | 32.2 | 0.00 | 0.28 | 0.08 | 69 | 1010.1 |
| 20260901134206 | 21 | 238 | 17.7 | 27.4 | 0.00 | 0.28 | 0.08 | 69 | 1010.1 |
| 20260901133705 | 21 | 258 | 12.9 | 25.7 | 0.00 | 0.28 | 0.08 | 69 | 1010.1 |
| 20260901132706 | 20 | 275 | 12.9 | 25.7 | 0.00 | 0.28 | 0.08 | 72 | 1010.1 |
| 20260901132205 | 20 | 277 | 14.5 | 22.5 | 0.00 | 0.28 | 0.08 | 72 | 1010.1 |
| 20260901131704 | 20 | 285 | 14.5 | 22.5 | 0.00 | 0.28 | 0.08 | 72 | 1010.1 |
| 20260901130707 | 20 | 300 | 16.1 | 27.4 | 0.00 | 0.28 | 0.08 | 71 | 1010.1 |
| 20260901125704 | 20 | 274 | 8.0 | 20.9 | 0.00 | 0.28 | 0.08 | 72 | 1010.0 |
| 20260901125204 | 20 | 287 | 9.7 | 20.9 | 0.00 | 0.28 | 0.08 | 72 | 1010.0 |
| 20260901124707 | 20 | 294 | 17.7 | 24.1 | 0.00 | 0.28 | 0.08 | 72 | 1010.0 |
| 20260901123206 | 20 | 302 | 9.7 | 20.9 | 0.00 | 0.28 | 0.08 | 73 | 1010.0 |
| 20260901122706 | 20 | 298 | 14.5 | 22.5 | 0.00 | 0.28 | 0.08 | 72 | 1010.0 |
| 20260901122207 | 21 | 289 | 16.1 | 24.1 | 0.00 | 0.28 | 0.08 | 72 | 1010.0 |
| 20260901121707 | 21 | 248 | 12.9 | 22.5 | 0.00 | 0.28 | 0.08 | 71 | 1009.9 |
| 20260901120206 | 20 | 273 | 14.5 | 25.7 | 0.00 | 0.28 | 0.08 | 74 | 1009.9 |
| 20260901115706 | 20 | 273 | 14.5 | 22.5 | 0.00 | 0.28 | 0.08 | 74 | 1009.9 |
| 20260901115207 | 20 | 259 | 8.0 | 22.5 | 0.00 | 0.28 | 0.08 | 75 | 1010.0 |
| 20260901113707 | 19 | 274 | 14.5 | 20.9 | 0.00 | 0.28 | 0.08 | 76 | 1010.0 |
| 20260901112206 | 19 | 286 | 12.9 | 22.5 | 0.00 | 0.28 | 0.08 | 75 | 1009.9 |
| 20260901111206 | 19 | 287 | 11.3 | 22.5 | 0.00 | 0.28 | 0.08 | 77 | 1009.8 |
| 20260901110206 | 19 | 304 | 9.7 | 16.1 | 0.00 | 0.28 | 0.08 | 77 | 1009.8 |
| 20260901105706 | 19 | 289 | 12.9 | 24.1 | 0.00 | 0.28 | 0.08 | 76 | 1009.7 |
| 20260901104706 | 20 | 287 | 20.9 | 29.0 | 0.00 | 0.28 | 0.08 | 77 | 1009.7 |
| 20260901103706 | 19 | 291 | 8.0 | 16.1 | 0.00 | 0.30 | 0.08 | 78 | 1009.8 |
| 20260901102706 | 19 | 254 | 16.1 | 22.5 | 0.00 | 0.30 | 0.08 | 79 | 1009.7 |
| 20260901101207 | 18 | 278 | 8.0 | 20.9 | 0.00 | 0.30 | 0.08 | 84 | 1009.5 |
| 20260901100707 | 18 | 297 | 11.3 | 20.9 | 0.00 | 0.30 | 0.08 | 83 | 1009.5 |
| 20260901095206 | 18 | 266 | 9.7 | 16.1 | 0.00 | 0.30 | 0.08 | 85 | 1009.5 |
| 20260901094706 | 17 | 295 | 12.9 | 22.5 | 0.00 | 0.30 | 0.08 | 85 | 1009.4 |
| 20260901093706 | 17 | 262 | 16.1 | 24.1 | 0.03 | 0.41 | 0.08 | 85 | 1009.3 |
| 20260901093206 | 17 | 272 | 9.7 | 20.9 | 0.03 | 0.48 | 0.08 | 87 | 1009.3 |
| 20260901092706 | 17 | 265 | 8.0 | 16.1 | 0.03 | 0.48 | 0.08 | 87 | 1009.3 |
| 20260901091706 | 17 | 282 | 11.3 | 22.5 | 0.03 | 0.48 | 0.08 | 87 | 1009.3 |
| 20260901090206 | 17 | 311 | 4.8 | 9.7 | 0.03 | 0.48 | 0.08 | 89 | 1009.3 |
| 20260901085707 | 17 | 312 | 8.0 | 11.3 | 0.03 | 0.48 | 0.08 | 89 | 1009.3 |
| 20260901085206 | 17 | 303 | 4.8 | 20.9 | 0.03 | 0.48 | 0.08 | 88 | 1009.3 |
| 20260901084706 | 17 | 326 | 9.7 | 16.1 | 0.03 | 0.48 | 0.08 | 88 | 1009.2 |
| 20260901083706 | 17 | 280 | 8.0 | 14.5 | 0.00 | 0.46 | 0.05 | 88 | 1009.2 |
| 20260901083207 | 17 | 285 | 11.3 | 16.1 | 0.00 | 0.46 | 0.05 | 88 | 1009.1 |
| 20260901080708 | 17 | 273 | 8.0 | 16.1 | 0.00 | 0.46 | 0.05 | 92 | 1008.7 |
| 20260901075205 | 16 | 280 | 9.7 | 22.5 | 0.00 | 0.46 | 0.05 | 93 | 1008.6 |
| 20260901073706 | 16 | 264 | 8.0 | 24.1 | 0.03 | 0.46 | 0.05 | 93 | 1008.5 |
| 20260901073205 | 16 | 294 | 6.4 | 12.9 | 0.03 | 0.46 | 0.05 | 93 | 1008.4 |
| 20260901072708 | 16 | 255 | 11.3 | 24.1 | 0.03 | 0.46 | 0.05 | 93 | 1008.4 |
| 20260901072206 | 16 | 288 | 11.3 | 16.1 | 0.03 | 0.46 | 0.05 | 93 | 1008.4 |
| 20260901071206 | 16 | 293 | 4.8 | 20.9 | 0.03 | 0.46 | 0.05 | 93 | 1008.3 |
| 20260901070207 | 15 | 295 | 6.4 | 9.7 | 0.03 | 0.46 | 0.05 | 93 | 1008.2 |
| 20260901065706 | 15 | 286 | 8.0 | 14.5 | 0.03 | 0.48 | 0.05 | 93 | 1008.2 |
| 20260901065205 | 15 | 297 | 9.7 | 16.1 | 0.03 | 0.51 | 0.05 | 93 | 1008.2 |
| 20260901064706 | 15 | 295 | 8.0 | 16.1 | 0.03 | 0.51 | 0.05 | 93 | 1008.1 |
| 20260901063706 | 15 | 286 | 8.0 | 14.5 | 0.00 | 0.48 | 0.03 | 93 | 1008.1 |
| 20260901063205 | 15 | 292 | 11.3 | 20.9 | 0.00 | 0.48 | 0.03 | 93 | 1008.1 |
| 20260901062705 | 15 | 287 | 9.7 | 14.5 | 0.00 | 0.48 | 0.03 | 93 | 1007.9 |
| 20260901060206 | 15 | 287 | 8.0 | 11.3 | 0.00 | 0.48 | 0.03 | 93 | 1007.7 |
| 20260901054205 | 15 | 277 | 4.8 | 11.3 | 0.00 | 0.48 | 0.03 | 92 | 1007.6 |
| 20260901053205 | 15 | 232 | 4.8 | 8.0 | 0.00 | 0.48 | 0.03 | 93 | 1007.5 |
| 20260901052207 | 15 | 199 | 4.8 | 9.7 | 0.00 | 0.48 | 0.03 | 92 | 1007.5 |
| 20260901051706 | 15 | 233 | 1.6 | 4.8 | 0.00 | 0.48 | 0.03 | 93 | 1007.4 |
| 20260901050705 | 14 | 232 | 4.8 | 8.0 | 0.00 | 0.51 | 0.03 | 92 | 1007.4 |
| 20260901050206 | 14 | 249 | 4.8 | 9.7 | 0.00 | 0.51 | 0.03 | 92 | 1007.2 |
| 20260901045705 | 14 | 257 | 3.2 | 9.7 | 0.00 | 0.51 | 0.03 | 92 | 1007.2 |
| 20260901045206 | 14 | 254 | 3.2 | 8.0 | 0.00 | 0.51 | 0.03 | 92 | 1007.2 |
| 20260901043205 | 14 | 244 | 3.2 | 8.0 | 0.00 | 0.51 | 0.03 | 92 | 1007.0 |
| 20260901042706 | 14 | 249 | 3.2 | 8.0 | 0.00 | 0.51 | 0.03 | 92 | 1007.0 |
| 20260901042206 | 14 | 232 | 4.8 | 9.7 | 0.00 | 0.51 | 0.03 | 92 | 1007.0 |
| 20260901040206 | 13 | 211 | 8.0 | 9.7 | 0.00 | 0.51 | 0.03 | 92 | 1006.9 |
| 20260901034705 | 13 | 216 | 4.8 | 9.7 | 0.00 | 0.51 | 0.03 | 92 | 1006.8 |
| 20260901033706 | 13 | 199 | 4.8 | 8.0 | 0.00 | 0.51 | 0.03 | 92 | 1006.8 |
| 20260901033205 | 13 | 208 | 3.2 | 8.0 | 0.00 | 0.51 | 0.03 | 92 | 1006.8 |
| 20260901032705 | 13 | 200 | 4.8 | 8.0 | 0.00 | 0.51 | 0.03 | 92 | 1006.7 |
| 20260901031707 | 13 | 188 | 6.4 | 8.0 | 0.00 | 0.51 | 0.03 | 92 | 1006.7 |
| 20260901030206 | 13 | 202 | 4.8 | 8.0 | 0.00 | 0.51 | 0.03 | 92 | 1006.7 |
| 20260901025706 | 13 | 170 | 3.2 | 4.8 | 0.00 | 0.51 | 0.03 | 92 | 1006.6 |
| 20260901024206 | 13 | 200 | 4.8 | 8.0 | 0.00 | 0.51 | 0.03 | 92 | 1006.5 |
| 20260901023205 | 13 | 183 | 6.4 | 9.7 | 0.00 | 0.51 | 0.03 | 92 | 1006.5 |
| 20260901022707 | 13 | 186 | 8.0 | 11.3 | 0.00 | 0.51 | 0.03 | 92 | 1006.5 |
| 20260901022205 | 13 | 180 | 6.4 | 8.0 | 0.00 | 0.51 | 0.03 | 92 | 1006.5 |
| 20260901021706 | 13 | 178 | 4.8 | 8.0 | 0.00 | 0.51 | 0.03 | 92 | 1006.5 |
| 20260901020706 | 13 | 196 | 4.8 | 8.0 | 0.00 | 0.51 | 0.03 | 92 | 1006.4 |
| 20260901020206 | 13 | 173 | 4.8 | 4.8 | 0.00 | 0.51 | 0.03 | 92 | 1006.4 |
| 20260901015705 | 13 | 172 | 3.2 | 4.8 | 0.00 | 0.51 | 0.03 | 91 | 1006.4 |
| 20260901015206 | 13 | 195 | 6.4 | 4.8 | 0.00 | 0.51 | 0.03 | 91 | 1006.4 |
| 20260901014705 | 13 | 191 | 4.8 | 8.0 | 0.00 | 0.51 | 0.03 | 91 | 1006.3 |
| 20260901013207 | 13 | 182 | 1.6 | 4.8 | 0.00 | 0.51 | 0.03 | 91 | 1006.2 |
| 20260901012707 | 13 | 191 | 3.2 | 8.0 | 0.00 | 0.51 | 0.03 | 91 | 1006.2 |
| 20260901011705 | 13 | 178 | 4.8 | 9.7 | 0.00 | 0.51 | 0.03 | 91 | 1006.2 |
| 20260901011205 | 13 | 159 | 4.8 | 9.7 | 0.00 | 0.51 | 0.03 | 91 | 1006.2 |
| 20260901010206 | 13 | 140 | 8.0 | 9.7 | 0.00 | 0.51 | 0.03 | 92 | 1006.1 |
| 20260901004705 | 13 | 160 | 8.0 | 9.7 | 0.00 | 0.51 | 0.03 | 91 | 1006.1 |
| 20260901004206 | 13 | 149 | 4.8 | 9.7 | 0.00 | 0.51 | 0.03 | 91 | 1006.1 |
| 20260901000705 | 13 | 197 | 8.0 | 9.7 | 0.00 | 0.51 | 0.03 | 91 | 1006.0 |
| 20260831233707 | 13 | 173 | 8.0 | 9.7 | 0.03 | 0.51 | 0.03 | 91 | 1005.8 |
| 20260831232706 | 13 | 165 | 4.8 | 9.7 | 0.03 | 0.51 | 0.03 | 91 | 1005.9 |
| 20260831232205 | 13 | 185 | 4.8 | 8.0 | 0.03 | 0.51 | 0.03 | 91 | 1005.9 |
| 20260831230708 | 14 | 159 | 6.4 | 9.7 | 0.03 | 0.51 | 0.03 | 91 | 1005.9 |
| 20260831230206 | 14 | 180 | 4.8 | 8.0 | 0.03 | 0.51 | 0.03 | 91 | 1005.9 |
| 20260831225709 | 14 | 177 | 4.8 | 9.7 | 0.03 | 0.51 | 0.03 | 91 | 1005.9 |
| 20260831224705 | 14 | 190 | 8.0 | 9.7 | 0.00 | 0.48 | 0.00 | 91 | 1005.8 |
| 20260831222207 | 15 | 166 | 8.0 | 12.9 | 0.00 | 0.48 | 0.00 | 91 | 1006.0 |
| 20260831221207 | 15 | 180 | 4.8 | 8.0 | 0.00 | 0.48 | 0.00 | 91 | 1005.9 |